Albuquerque, NM

12:20 AM MDT on March 25, 2017 (GMT -0600)
Albuquerque International Sunport

Weather History for KABQ - November, 2014

Change the Weather History Date:

Sunday, November 23, 2014

  Actual Average Record
Temperature  
Mean Temperature 42 °F 42 °F  
Max Temperature 50 °F 52 °F 74 °F (1909)
Min Temperature 33 °F 31 °F 10 °F (1931)
Degree Days  
Heating Degree Days 23 23  
Month to date heating degree days 418 429  
Since 1 July heating degree days 531 695  
Cooling Degree Days 0 0  
Month to date cooling degree days 0 0  
Year to date cooling degree days 1444 1322  
Moisture  
Dew Point 15 °F    
Average Humidity 36    
Maximum Humidity 53    
Minimum Humidity 18    
Precipitation  
Precipitation 0.00 in 0.02 in 0.49 in (2000)
Month to date precipitation 0.25 0.45  
Year to date precipitation 7.67 8.83  
Snow  
Snow 0.00 in - - ()
Month to date snowfall T  
Since 1 July snowfall T  
Since 1 September snowfall T  
Snow Depth 0.00 in    
Sea Level Pressure  
Sea Level Pressure 29.84 in    
Wind  
Wind Speed 18 mph (NW)    
Max Wind Speed 38 mph    
Max Gust Speed 50 mph    
Visibility 10 miles    
Events      
T = Trace of Precipitation, MM = Missing Value Source: NWS Daily Summary

Daily Weather History Graph

Daily Weather History Graph

Search for Another Location

Airport or City:

Trip Planner

Search our weather history database for the weather conditions in past years. The results will help you decide how hot, cold, wet, or windy it might be!

Date:

Astronomy

Nov. 23, 2014 Rise Set
Actual Time 6:48 AM MST 4:56 PM MST
Civil Twilight 6:21 AM MST 5:24 PM MST
Nautical Twilight 5:50 AM MST 5:55 PM MST
Astronomical Twilight 5:20 AM MST 6:25 PM MST
Moon 7:48 AM MST (11/23) 6:21 PM MST (11/23)
Length of Visible Light 11h 02m
Length of Day
10h 07m
New Moon, 2% of the Moon is Illuminated
Nov 23
New Moon
Nov 29
First Quarter
Dec 6
Full
Dec 14
Last Quarter
Dec 21
New

Hourly Weather History & Observations

Time (MST) Temp. Windchill Dew Point Humidity Pressure Visibility Wind Dir Wind Speed Gust Speed Precip Events Conditions
12:52 AM 50.0 °F - 17.1 °F 27% 29.70 in 10.0 mi NNW 9.2 mph - N/A   Overcast
1:52 AM 48.0 °F - 18.0 °F 30% 29.67 in 10.0 mi West 6.9 mph - N/A   Mostly Cloudy
2:52 AM 46.9 °F - 17.1 °F 30% 29.67 in 10.0 mi Variable 4.6 mph - N/A   Mostly Cloudy
3:52 AM 46.0 °F 39.6 °F 17.1 °F 31% 29.67 in 10.0 mi West 15.0 mph - N/A   Scattered Clouds
4:52 AM 45.0 °F 37.1 °F 19.9 °F 37% 29.67 in 10.0 mi West 19.6 mph 27.6 mph N/A   Scattered Clouds
5:52 AM 44.1 °F 36.2 °F 21.0 °F 40% 29.71 in 10.0 mi West 18.4 mph - N/A   Partly Cloudy
6:52 AM 43.0 °F 35.7 °F 21.0 °F 42% 29.74 in 10.0 mi West 15.0 mph - N/A   Partly Cloudy
7:52 AM 44.1 °F 34.6 °F 24.1 °F 45% 29.81 in 10.0 mi NW 26.5 mph 32.2 mph N/A   Scattered Clouds
8:52 AM 42.1 °F 32.8 °F 26.1 °F 53% 29.85 in 10.0 mi WNW 21.9 mph 32.2 mph N/A   Mostly Cloudy
9:52 AM 43.0 °F 33.8 °F 24.1 °F 47% 29.84 in 10.0 mi WNW 23.0 mph 28.8 mph N/A   Mostly Cloudy
10:52 AM 46.0 °F 36.9 °F 21.0 °F 37% 29.80 in 10.0 mi WNW 28.8 mph 39.1 mph N/A   Mostly Cloudy
11:52 AM 46.0 °F 36.5 °F 19.9 °F 35% 29.78 in 10.0 mi WNW 31.1 mph 39.1 mph N/A   Mostly Cloudy
12:52 PM 46.0 °F 35.9 °F 10.9 °F 24% 29.78 in 10.0 mi NW 35.7 mph 48.3 mph N/A   Mostly Cloudy
1:52 PM 45.0 °F 34.6 °F 14.0 °F 29% 29.79 in 10.0 mi WNW 34.5 mph 46.0 mph N/A   Scattered Clouds
2:52 PM 45.0 °F 36.0 °F 3.9 °F 18% 29.83 in 10.0 mi WNW 25.3 mph 39.1 mph N/A   Partly Cloudy
3:52 PM 44.1 °F 35.9 °F 7.0 °F 22% 29.87 in 10.0 mi NW 19.6 mph 33.4 mph N/A   Partly Cloudy
4:52 PM 42.1 °F 34.5 °F 9.0 °F 26% 29.90 in 10.0 mi NW 15.0 mph 26.5 mph N/A   Partly Cloudy
5:52 PM 41.0 °F 34.3 °F 9.0 °F 27% 29.93 in 10.0 mi NNW 11.5 mph 21.9 mph N/A   Partly Cloudy
6:52 PM 39.9 °F 35.8 °F 9.0 °F 28% 29.97 in 10.0 mi North 5.8 mph - N/A   Partly Cloudy
7:52 PM 39.9 °F 31.8 °F 8.1 °F 27% 30.00 in 10.0 mi NNW 15.0 mph 27.6 mph N/A   Partly Cloudy
8:52 PM 39.0 °F 30.6 °F 7.0 °F 27% 30.01 in 10.0 mi NW 15.0 mph 27.6 mph N/A   Partly Cloudy
9:52 PM 37.0 °F 29.3 °F 10.0 °F 33% 30.04 in 10.0 mi North 11.5 mph - N/A   Clear
10:52 PM 36.0 °F 28.5 °F 10.9 °F 36% 30.05 in 10.0 mi NNW 10.4 mph - N/A   Clear
11:52 PM 34.0 °F 24.6 °F 10.9 °F 38% 30.06 in 10.0 mi NNW 13.8 mph 18.4 mph N/A   Clear